When you browse on this site, cookies collect data to enhance your experience and personalize the content and advertising you see.
Visit our Privacy Policy to learn more. By continuing to use the site, you agree to this use of cookies and data.
  • In Sweden
  • List of Countries
  • For 7 days
  • Water Temperature
  • Satellite Maps
  • Weather Map
  • Weather Widgets
  • user-avatar
    Login

    Hourly Weather Çayeli

    Today, 19 November, Monday

    Time Temperature Precipitation Wind Pressure Humidity
    00:00 +10°C° 0 mm 3 mps 766 mmHg 58%
    01:00 +10°C° 0 mm 3 mps 766 mmHg 58%
    02:00 +10°C° 0 mm 3 mps 766 mmHg 58%
    03:00 +11°C° 0 mm 3 mps 765 mmHg 58%
    04:00 +11°C° 0 mm 3 mps 765 mmHg 58%
    05:00 +11°C° 0 mm 4 mps 765 mmHg 58%
    06:00 +11°C° 0 mm 4 mps 765 mmHg 58%
    07:00 +12°C° 0 mm 4 mps 765 mmHg 57%
    08:00 +13°C° 0 mm 4 mps 764 mmHg 57%
    09:00 +14°C° 0 mm 3 mps 764 mmHg 57%
    10:00 +17°C° 0 mm 3 mps 764 mmHg 57%
    11:00 +18°C° 0 mm 3 mps 763 mmHg 56%
    12:00 +20°C° 0 mm 3 mps 763 mmHg 56%
    13:00 +20°C° 0 mm 3 mps 762 mmHg 57%
    14:00 +20°C° 0 mm 3 mps 762 mmHg 58%
    15:00 +19°C° 0 mm 3 mps 762 mmHg 60%
    16:00 +18°C° 0 mm 3 mps 762 mmHg 61%
    17:00 +17°C° 0 mm 3 mps 762 mmHg 62%
    18:00 +15°C° 0 mm 4 mps 763 mmHg 63%
    19:00 +15°C° 0 mm 4 mps 763 mmHg 63%
    20:00 +15°C° 0 mm 4 mps 763 mmHg 63%
    21:00 +15°C° 0 mm 4 mps 763 mmHg 63%
    22:00 +15°C° 0 mm 4 mps 763 mmHg 62%
    23:00 +16°C° 0 mm 3 mps 763 mmHg 61%

    Tomorrow, 20 November, Tuesday

    Time Temperature Precipitation Wind Pressure Humidity
    00:00 +14°C° 0 mm 3 mps 763 mmHg 60%
    01:00 +16°C° 0 mm 3 mps 763 mmHg 59%
    02:00 +16°C° 0 mm 3 mps 763 mmHg 57%
    03:00 +16°C° 0 mm 3 mps 763 mmHg 56%
    04:00 +16°C° 0 mm 3 mps 763 mmHg 55%
    05:00 +16°C° 0 mm 3 mps 763 mmHg 55%
    06:00 +16°C° 0 mm 3 mps 763 mmHg 54%
    07:00 +16°C° 0 mm 3 mps 763 mmHg 55%
    08:00 +17°C° 0 mm 3 mps 764 mmHg 56%
    09:00 +17°C° 0 mm 3 mps 764 mmHg 58%
    10:00 +18°C° 0.2 mm 3 mps 764 mmHg 58%
    11:00 +18°C° 0.2 mm 3 mps 764 mmHg 59%
    12:00 +19°C° 0.2 mm 3 mps 764 mmHg 60%
    13:00 +18°C° 0.9 mm 3 mps 763 mmHg 65%
    14:00 +18°C° 0.9 mm 3 mps 763 mmHg 71%
    15:00 +17°C° 0.9 mm 2 mps 763 mmHg 77%
    16:00 +17°C° 1.1 mm 2 mps 764 mmHg 77%
    17:00 +16°C° 1.1 mm 2 mps 764 mmHg 77%
    18:00 +16°C° 1.1 mm 2 mps 764 mmHg 77%
    19:00 +15°C° 0.8 mm 2 mps 764 mmHg 76%
    20:00 +15°C° 0.8 mm 2 mps 764 mmHg 75%
    21:00 +15°C° 0.8 mm 1 mps 764 mmHg 74%
    22:00 +14°C° 0.2 mm 1 mps 764 mmHg 72%
    23:00 +14°C° 0.2 mm 2 mps 764 mmHg 70%

    Day after tomorrow, 21 November, Wednesday

    Time Temperature Precipitation Wind Pressure Humidity
    00:00 +14°C° 0.2 mm 2 mps 764 mmHg 68%
    01:00 +14°C° 0 mm 2 mps 764 mmHg 67%
    02:00 +13°C° 0 mm 2 mps 764 mmHg 65%
    03:00 +13°C° 0 mm 2 mps 764 mmHg 63%
    04:00 +13°C° 0 mm 2 mps 763 mmHg 62%
    05:00 +13°C° 0 mm 2 mps 763 mmHg 62%
    06:00 +13°C° 0 mm 2 mps 763 mmHg 61%
    07:00 +14°C° 0 mm 2 mps 762 mmHg 61%
    08:00 +15°C° 0 mm 2 mps 762 mmHg 61%
    09:00 +16°C° 0 mm 2 mps 762 mmHg 61%
    10:00 +17°C° 0 mm 2 mps 761 mmHg 60%
    11:00 +18°C° 0 mm 2 mps 760 mmHg 59%
    12:00 +19°C° 0 mm 2 mps 760 mmHg 58%
    13:00 +19°C° 0.1 mm 2 mps 759 mmHg 60%
    14:00 +18°C° 0.1 mm 2 mps 759 mmHg 63%
    15:00 +18°C° 0.1 mm 3 mps 758 mmHg 65%
    16:00 +17°C° 0.2 mm 2 mps 758 mmHg 68%
    17:00 +16°C° 0.2 mm 2 mps 758 mmHg 71%
    18:00 +16°C° 0.2 mm 2 mps 758 mmHg 73%
    19:00 +16°C° 0.3 mm 2 mps 758 mmHg 73%
    20:00 +16°C° 0.3 mm 2 mps 758 mmHg 72%
    21:00 +16°C° 0.3 mm 2 mps 758 mmHg 72%
    22:00 +16°C° 0.4 mm 2 mps 758 mmHg 72%
    23:00 +15°C° 0.4 mm 2 mps 758 mmHg 73%

    22 November, Thursday

    Time Temperature Precipitation Wind Pressure Humidity
    00:00 +15°C° 0.4 mm 2 mps 758 mmHg 73%
    01:00 +15°C° 0.4 mm 2 mps 758 mmHg 74%
    02:00 +15°C° 0.4 mm 2 mps 758 mmHg 75%
    03:00 +15°C° 0.4 mm 2 mps 758 mmHg 75%
    04:00 +15°C° 0.5 mm 2 mps 758 mmHg 76%
    05:00 +15°C° 0.5 mm 2 mps 758 mmHg 76%
    06:00 +14°C° 0.5 mm 2 mps 757 mmHg 77%
    07:00 +15°C° 0.5 mm 2 mps 758 mmHg 76%
    08:00 +15°C° 0.5 mm 2 mps 758 mmHg 76%
    09:00 +16°C° 0.5 mm 2 mps 758 mmHg 75%
    10:00 +16°C° 0.5 mm 2 mps 758 mmHg 76%
    11:00 +17°C° 0.5 mm 2 mps 758 mmHg 76%
    12:00 +17°C° 0.5 mm 2 mps 757 mmHg 76%
    13:00 +17°C° 0.6 mm 2 mps 757 mmHg 79%
    14:00 +17°C° 0.6 mm 2 mps 757 mmHg 81%
    15:00 +16°C° 0.6 mm 2 mps 757 mmHg 83%
    16:00 +16°C° 0.7 mm 2 mps 757 mmHg 86%
    17:00 +15°C° 0.7 mm 2 mps 758 mmHg 88%
    18:00 +15°C° 0.7 mm 2 mps 758 mmHg 90%
    19:00 +15°C° 0.7 mm 2 mps 758 mmHg 90%
    20:00 +14°C° 0.7 mm 3 mps 759 mmHg 91%
    21:00 +14°C° 0.7 mm 3 mps 759 mmHg 91%
    22:00 +13°C° 0.7 mm 3 mps 759 mmHg 91%
    23:00 +13°C° 0.7 mm 4 mps 759 mmHg 91%

    23 November, Friday

    Time Temperature Precipitation Wind Pressure Humidity
    00:00 +13°C° 0.7 mm 4 mps 760 mmHg 92%
    01:00 +13°C° 0.6 mm 4 mps 760 mmHg 92%
    02:00 +12°C° 0.6 mm 4 mps 760 mmHg 92%
    03:00 +12°C° 0.6 mm 4 mps 760 mmHg 92%
    04:00 +12°C° 0.6 mm 4 mps 760 mmHg 92%
    05:00 +12°C° 0.6 mm 4 mps 761 mmHg 92%
    06:00 +12°C° 0.6 mm 4 mps 761 mmHg 92%
    07:00 +12°C° 0.5 mm 4 mps 761 mmHg 91%
    08:00 +12°C° 0.5 mm 4 mps 762 mmHg 90%
    09:00 +12°C° 0.5 mm 4 mps 762 mmHg 89%
    10:00 +12°C° 0.3 mm 4 mps 762 mmHg 87%
    11:00 +12°C° 0.3 mm 4 mps 762 mmHg 86%
    12:00 +12°C° 0.3 mm 4 mps 762 mmHg 85%
    13:00 +12°C° 0.3 mm 4 mps 763 mmHg 85%
    14:00 +12°C° 0.3 mm 4 mps 763 mmHg 85%
    15:00 +12°C° 0.3 mm 4 mps 763 mmHg 85%
    16:00 +11°C° 0.2 mm 4 mps 763 mmHg 86%
    17:00 +11°C° 0.2 mm 4 mps 764 mmHg 87%
    18:00 +11°C° 0.2 mm 4 mps 764 mmHg 88%
    19:00 +11°C° 0.1 mm 4 mps 765 mmHg 88%
    20:00 +10°C° 0.1 mm 4 mps 765 mmHg 88%
    21:00 +10°C° 0.1 mm 3 mps 766 mmHg 89%
    22:00 +10°C° 0.1 mm 3 mps 766 mmHg 89%
    23:00 +10°C° 0.1 mm 3 mps 766 mmHg 89%

    24 November, Saturday

    Time Temperature Precipitation Wind Pressure Humidity
    00:00 +10°C° 0.1 mm 3 mps 767 mmHg 89%
    01:00 +10°C° 0.1 mm 3 mps 767 mmHg 89%
    02:00 +10°C° 0.1 mm 2 mps 767 mmHg 89%
    03:00 +10°C° 0.1 mm 2 mps 767 mmHg 89%
    04:00 +10°C° 0 mm 2 mps 767 mmHg 89%
    05:00 +10°C° 0 mm 1 mps 767 mmHg 88%
    06:00 +10°C° 0 mm 1 mps 768 mmHg 88%
    07:00 +11°C° 0 mm 1 mps 768 mmHg 85%
    08:00 +12°C° 0 mm 1 mps 768 mmHg 82%
    09:00 +12°C° 0 mm 1 mps 768 mmHg 79%
    10:00 +13°C° 0 mm 1 mps 768 mmHg 78%
    11:00 +14°C° 0 mm 2 mps 767 mmHg 76%
    12:00 +14°C° 0 mm 2 mps 767 mmHg 75%
    13:00 +14°C° 0 mm 2 mps 766 mmHg 76%
    14:00 +14°C° 0 mm 2 mps 766 mmHg 76%
    15:00 +14°C° 0 mm 2 mps 766 mmHg 77%
    16:00 +14°C° 0 mm 2 mps 766 mmHg 77%
    17:00 +13°C° 0 mm 1 mps 766 mmHg 78%
    18:00 +12°C° 0 mm 1 mps 766 mmHg 78%
    19:00 +12°C° 0 mm 1 mps 766 mmHg 76%
    20:00 +12°C° 0 mm 1 mps 767 mmHg 75%
    21:00 +12°C° 0 mm 1 mps 767 mmHg 73%
    22:00 +12°C° 0 mm 1 mps 767 mmHg 73%
    23:00 +12°C° 0 mm 1 mps 766 mmHg 72%
    Show more